Location: ??????
(55.2000°N, 38.3000°E)
Time: 01:10:34
(UTC+00:00)

Cosmos 1980 Rocket - Pass Details

Date: 15 November 2025
Orbit: 829 x 848 km, 71.0° (Epoch: 12 December)

Event Time Altitude Azimuth Distance (km) Brightness Sun altitude
Exits shadow 01:38:37 16° 349° (N) 2,057 4.2 -28.3°
Maximum altitude 01:39:02 16° 355° (N) 2,050 4.2 -28.2°
Drops below altitude 10° 01:42:32 10° 33° (NNE) 2,468 5.1 -27.7°
Sets 01:45:59 0° 54° (NE) 3,398 6.3 -27.2°
